Precipitable_Water
0.47 0.41 0.34 0.37 0.42 0.44 0.43 0.43 0.40 0.46 0.56 0.57 0.52 0.52 0.62 0.71 0.74 0.75 0.80 0.86 0.90 0.87 0.92 1.06 0.96 0.98 1.03 1.03 0.96 0.93 0.90 0.81 0.72 0.71 0.65 0.60 0.57 0.60 0.59 0.58 0.57 0.58 0.62 0.63
0.38 0.33 0.39 0.39 0.41 0.40 0.41 0.39 0.41 0.47 0.53 0.55 0.51 0.46 0.52 0.61 0.65 0.71 0.77 0.83 0.86 0.83 0.82 0.94 0.82 0.90 0.90 0.92 0.93 0.98 0.96 0.88 0.76 0.71 0.67 0.64 0.63 0.64 0.64 0.60 0.59 0.62 0.63 0.64
0.29 0.34 0.39 0.35 0.31 0.30 0.37 0.41 0.41 0.40 0.46 0.51 0.43 0.37 0.45 0.56 0.67 0.77 0.80 0.83 0.86 0.81 0.76 0.82 0.73 0.75 0.78 0.87 0.93 0.98 1.01 0.96 0.84 0.75 0.71 0.67 0.68 0.66 0.62 0.59 0.58 0.61 0.65 0.68
0.27 0.30 0.29 0.29 0.25 0.39 0.37 0.46 0.44 0.41 0.38 0.30 0.39 0.25 0.35 0.47 0.49 0.62 0.71 0.80 0.81 0.81 0.77 0.79 0.70 0.73 0.75 0.84 0.93 0.99 1.07 1.05 0.94 0.83 0.70 0.61 0.55 0.56 0.61 0.62 0.62 0.68 0.74 0.76
0.23 0.26 0.26 0.27 0.32 0.44 0.40 0.48 0.44 0.43 0.37 0.33 0.31 0.27 0.30 0.42 0.36 0.49 0.67 0.76 0.82 0.81 0.76 0.73 0.69 0.73 0.76 0.81 0.86 0.97 1.06 1.06 1.03 0.91 0.73 0.63 0.59 0.65 0.66 0.71 0.72 0.73 0.77 0.79
0.24 0.31 0.36 0.36 0.44 0.46 0.46 0.42 0.43 0.39 0.32 0.21 0.25 0.24 0.18 0.31 0.35 0.50 0.65 0.73 0.78 0.75 0.74 0.81 0.82 0.77 0.75 0.82 0.86 0.92 1.00 1.06 1.07 0.99 0.78 0.66 0.64 0.65 0.70 0.78 0.80 0.80 0.81 0.81
0.23 0.23 0.33 0.41 0.36 0.40 0.37 0.35 0.27 0.24 0.21 0.16 0.27 0.22 0.21 0.34 0.40 0.49 0.54 0.65 0.71 0.69 0.71 0.75 0.78 0.71 0.72 0.79 0.85 0.89 0.94 1.03 1.08 1.06 0.82 0.72 0.69 0.74 0.76 0.82 0.84 0.84 0.83 0.79
0.15 0.12 0.24 0.35 0.33 0.31 0.34 0.34 0.27 0.18 0.17 0.17 0.25 0.17 0.23 0.38 0.40 0.46 0.52 0.58 0.64 0.62 0.67 0.70 0.76 0.76 0.72 0.77 0.89 0.90 0.94 1.03 1.09 1.06 0.87 0.78 0.78 0.80 0.83 0.89 0.90 0.88 0.86 0.82
0.14 0.15 0.22 0.30 0.35 0.34 0.33 0.30 0.37 0.29 0.28 0.20 0.21 0.23 0.29 0.37 0.38 0.43 0.49 0.54 0.55 0.60 0.63 0.64 0.73 0.75 0.72 0.76 0.88 0.93 0.95 0.97 1.03 1.12 0.93 0.81 0.78 0.83 0.88 0.92 0.93 0.91 0.95 0.93
0.19 0.14 0.19 0.21 0.33 0.36 0.33 0.38 0.27 0.30 0.18 0.17 0.20 0.19 0.21 0.29 0.34 0.41 0.45 0.47 0.51 0.56 0.62 0.66 0.70 0.72 0.75 0.77 0.90 0.99 1.00 0.94 0.99 1.10 0.98 0.80 0.73 0.83 0.92 0.96 0.94 0.92 0.96 1.00
0.22 0.18 0.15 0.21 0.23 0.24 0.30 0.28 0.31 0.33 0.30 0.21 0.18 0.20 0.29 0.30 0.35 0.35 0.38 0.43 0.48 0.54 0.59 0.64 0.64 0.71 0.74 0.77 0.84 0.91 0.99 0.98 0.98 1.05 1.06 0.84 0.75 0.82 0.92 0.97 0.99 0.96 0.97 0.99
0.22 0.21 0.15 0.16 0.25 0.32 0.32 0.31 0.31 0.26 0.24 0.29 0.27 0.23 0.36 0.37 0.38 0.40 0.42 0.43 0.49 0.53 0.57 0.62 0.64 0.70 0.74 0.70 0.76 0.80 0.91 0.95 0.98 1.04 1.07 0.91 0.81 0.84 0.89 0.93 1.02 1.01 0.99 1.00
0.24 0.20 0.16 0.16 0.21 0.29 0.26 0.30 0.34 0.35 0.33 0.28 0.24 0.24 0.37 0.38 0.39 0.40 0.40 0.43 0.48 0.56 0.59 0.61 0.63 0.66 0.70 0.75 0.72 0.75 0.82 0.90 0.96 1.00 1.03 0.99 0.86 0.85 0.90 0.94 1.00 0.99 1.00 1.00
0.29 0.23 0.19 0.14 0.17 0.24 0.25 0.29 0.33 0.35 0.29 0.30 0.29 0.30 0.33 0.32 0.33 0.36 0.37 0.39 0.41 0.50 0.56 0.59 0.62 0.64 0.67 0.72 0.72 0.73 0.77 0.86 0.90 0.93 0.98 0.98 0.95 0.92 0.93 0.98 1.03 1.01 1.00 0.96
0.30 0.21 0.24 0.24 0.23 0.24 0.24 0.27 0.31 0.33 0.35 0.30 0.31 0.30 0.33 0.33 0.33 0.34 0.38 0.38 0.38 0.43 0.51 0.53 0.58 0.64 0.65 0.68 0.72 0.77 0.78 0.79 0.87 0.92 0.96 0.98 1.01 0.99 0.99 1.03 1.06 1.02 0.97 0.97
0.38 0.28 0.29 0.26 0.29 0.28 0.25 0.27 0.32 0.33 0.34 0.33 0.32 0.30 0.40 0.47 0.46 0.42 0.40 0.41 0.41 0.43 0.48 0.56 0.62 0.69 0.67 0.71 0.74 0.76 0.76 0.76 0.85 0.90 0.93 1.00 1.02 0.98 0.99 1.04 0.99 0.95 0.94 0.96
0.36 0.33 0.29 0.25 0.31 0.30 0.24 0.26 0.27 0.29 0.32 0.31 0.27 0.32 0.44 0.43 0.43 0.43 0.44 0.44 0.44 0.47 0.49 0.54 0.59 0.68 0.75 0.77 0.82 0.78 0.76 0.85 0.86 0.87 0.91 0.96 0.98 0.95 0.99 0.98 0.96 0.92 0.93 0.94
0.41 0.36 0.33 0.28 0.31 0.22 0.30 0.38 0.35 0.31 0.35 0.37 0.36 0.38 0.42 0.44 0.49 0.50 0.52 0.50 0.49 0.49 0.50 0.52 0.56 0.62 0.72 0.82 0.85 0.87 0.84 0.84 0.86 0.86 0.88 0.93 0.92 0.93 0.95 0.93 0.91 0.90 0.92 0.89
0.53 0.46 0.37 0.31 0.28 0.31 0.34 0.36 0.35 0.32 0.34 0.45 0.42 0.43 0.43 0.46 0.49 0.50 0.56 0.58 0.58 0.58 0.59 0.59 0.58 0.59 0.68 0.80 0.89 0.89 0.85 0.86 0.86 0.83 0.86 0.89 0.90 0.90 0.91 0.88 0.87 0.89 0.88 0.87
0.54 0.53 0.43 0.39 0.31 0.25 0.36 0.44 0.47 0.43 0.28 0.47 0.46 0.45 0.44 0.45 0.34 0.43 0.54 0.57 0.59 0.62 0.63 0.62 0.61 0.61 0.67 0.80 0.91 0.91 0.86 0.86 0.84 0.85 0.85 0.89 0.91 0.91 0.89 0.89 0.87 0.88 0.88 0.86
0.44 0.44 0.41 0.38 0.35 0.38 0.47 0.51 0.50 0.30 0.29 0.48 0.50 0.49 0.47 0.42 0.47 0.51 0.54 0.57 0.63 0.64 0.66 0.69 0.69 0.67 0.73 0.87 0.92 0.89 0.89 0.85 0.88 0.89 0.89 0.90 0.92 0.92 0.91 0.89 0.88 0.88 0.88 0.84
0.39 0.40 0.40 0.42 0.37 0.32 0.54 0.50 0.37 0.43 0.53 0.53 0.52 0.52 0.50 0.50 0.49 0.49 0.50 0.54 0.57 0.59 0.65 0.69 0.71 0.75 0.83 0.90 0.90 0.87 0.84 0.88 0.88 0.86 0.87 0.88 0.91 0.91 0.90 0.88 0.87 0.88 0.87 0.80
0.35 0.41 0.40 0.43 0.44 0.60 0.62 0.58 0.60 0.59 0.53 0.53 0.52 0.53 0.51 0.50 0.51 0.53 0.51 0.49 0.49 0.54 0.60 0.68 0.70 0.75 0.82 0.88 0.88 0.84 0.87 0.91 0.88 0.84 0.83 0.87 0.89 0.88 0.88 0.87 0.85 0.84 0.83 0.74
0.43 0.47 0.43 0.44 0.52 0.49 0.50 0.53 0.56 0.59 0.55 0.56 0.55 0.52 0.51 0.48 0.50 0.51 0.52 0.51 0.49 0.47 0.53 0.63 0.68 0.70 0.74 0.81 0.85 0.86 0.87 0.86 0.83 0.79 0.81 0.82 0.84 0.85 0.84 0.84 0.83 0.81 0.76 0.71
0.43 0.44 0.43 0.44 0.49 0.50 0.51 0.53 0.55 0.54 0.53 0.52 0.51 0.50 0.48 0.47 0.45 0.44 0.45 0.47 0.46 0.44 0.42 0.45 0.53 0.61 0.67 0.74 0.77 0.82 0.85 0.86 0.81 0.80 0.79 0.79 0.82 0.82 0.81 0.81 0.80 0.79 0.78 0.74
0.43 0.40 0.38 0.38 0.49 0.48 0.47 0.48 0.49 0.50 0.50 0.49 0.48 0.47 0.48 0.47 0.44 0.44 0.43 0.43 0.46 0.43 0.46 0.45 0.43 0.44 0.49 0.53 0.58 0.67 0.77 0.80 0.79 0.78 0.78 0.78 0.78 0.79 0.80 0.79 0.77 0.79 0.76 0.73
Wind_Speed
19 18 19 19 17 15 15 14 13 14 12 10 10 9 10 11 10 9 10 9 9 8 8 8 9 12 12 12 13 13 11 10 10 10 10 11 11 11 11 11 11 11 10 9
18 20 18 17 15 16 16 14 15 14 13 11 11 12 9 12 12 12 11 10 10 6 7 6 8 11 14 13 13 13 12 11 10 10 11 11 11 11 11 11 11 11 10 9
21 16 19 18 17 15 15 14 14 15 10 9 8 10 8 9 9 10 12 10 9 7 7 5 7 10 13 15 14 15 14 13 12 11 11 11 11 11 11 11 11 10 10 10
20 21 19 16 18 16 16 15 16 14 10 10 9 10 11 10 9 12 13 12 10 7 6 4 7 8 12 15 16 16 16 15 14 12 13 13 12 12 11 11 11 11 10 10
19 18 18 18 20 15 16 12 15 12 10 8 10 8 12 9 11 12 12 12 12 10 6 4 6 7 10 14 15 16 17 18 16 15 15 14 14 13 12 11 11 11 11 10
22 16 17 18 17 16 14 11 9 9 9 9 10 6 8 8 8 10 10 12 12 12 9 7 6 7 9 12 14 15 16 17 18 18 16 16 15 14 13 13 12 12 12 12
17 21 20 19 16 15 13 11 11 10 9 11 8 7 10 9 10 8 10 13 14 12 11 9 8 8 10 12 13 15 16 17 20 20 18 17 17 16 16 15 14 13 13 14
19 18 22 19 21 17 16 15 13 12 11 12 10 9 10 10 9 10 10 12 12 12 11 11 11 11 11 13 14 16 16 17 19 20 19 19 19 17 16 16 15 14 14 14
18 19 17 22 20 18 16 15 14 11 11 10 12 12 12 10 8 7 8 8 11 11 12 12 11 12 13 14 15 16 16 15 16 18 19 20 20 19 17 16 17 16 16 15
20 15 19 20 21 21 20 17 13 13 12 13 13 13 12 11 11 8 9 11 12 12 12 12 12 12 14 15 16 17 17 17 17 18 19 20 21 21 19 18 19 18 17 16
25 21 19 17 21 22 19 19 16 15 15 15 13 15 13 14 13 12 12 12 13 14 13 13 12 12 12 13 15 17 18 19 19 19 21 22 22 22 22 21 20 20 19 18
29 22 24 24 22 21 22 23 22 20 18 16 16 18 12 14 15 15 16 17 17 17 16 15 14 12 11 12 14 17 19 20 21 21 22 24 24 24 24 23 22 22 22 21
28 26 21 19 21 23 23 22 20 20 18 21 17 17 13 15 18 19 20 20 18 19 19 17 16 15 15 16 16 17 19 21 22 22 22 23 25 25 25 25 25 23 22 23
27 26 28 29 21 21 22 22 20 20 20 20 21 18 18 18 19 19 21 22 20 19 20 20 19 19 17 17 17 17 19 21 23 23 23 23 25 25 26 26 26 25 24 23
26 27 26 26 25 23 23 24 23 22 22 21 22 21 21 20 19 18 20 21 21 22 22 22 22 20 19 19 19 19 20 20 22 23 24 24 24 24 25 26 26 25 24 24
25 24 24 22 23 24 22 23 23 22 21 22 21 22 19 18 16 17 18 18 19 21 23 23 23 23 21 21 21 19 20 20 22 23 24 24 23 24 24 24 24 24 24 23
23 24 22 24 23 21 23 26 24 23 22 21 21 22 19 19 18 17 18 19 19 20 21 22 24 25 26 24 23 22 21 21 22 23 23 24 24 23 23 23 23 23 23 23
25 23 22 22 20 22 25 22 23 22 22 22 21 21 22 21 20 18 19 21 22 22 23 24 25 27 27 26 24 23 22 22 22 22 23 24 24 23 23 24 23 23 23 22
27 25 23 23 24 23 22 23 22 22 24 23 22 22 23 23 23 23 22 23 24 26 27 28 29 28 27 26 25 23 22 22 22 22 22 23 24 24 24 24 24 23 23 22
26 25 26 23 24 26 26 23 23 21 25 24 22 23 23 23 23 25 26 26 26 26 26 27 26 25 25 26 24 22 21 21 22 23 23 23 24 25 25 25 25 24 23 22
26 26 26 26 25 26 26 25 24 24 26 23 22 22 22 22 23 24 25 24 25 25 25 25 24 23 22 23 23 23 22 21 22 22 23 24 25 25 25 25 25 24 24 23
28 28 27 25 23 27 25 25 26 25 22 23 23 23 22 22 22 24 25 25 25 25 24 23 22 21 20 21 23 24 25 25 24 22 23 24 25 26 26 26 26 26 25 24
24 26 26 26 27 25 25 25 24 25 24 25 24 24 23 23 23 23 24 24 24 24 24 24 23 22 22 24 25 26 27 26 26 26 25 24 26 26 27 27 27 27 26 26
23 23 22 22 23 23 22 21 22 22 22 21 22 22 22 23 24 25 25 26 25 25 23 23 22 23 25 26 27 27 27 25 24 23 25 25 27 27 28 29 29 29 28 27
23 22 21 20 22 21 19 20 20 20 20 20 21 22 23 23 24 24 25 26 26 27 26 26 26 27 28 29 30 29 29 28 27 26 26 27 28 28 28 29 30 31 31 30
21 22 22 23 23 22 23 22 22 21 22 23 23 24 24 25 26 27 27 27 28 27 28 28 29 29 30 31 33 33 33 33 31 31 31 29 28 29 29 29 29 30 31 31
Wind_Direction
220 224 226 227 231 231 232 242 255 260 263 262 265 283 253 252 250 253 256 251 261 283 308 305 218 208 218 213 214 217 221 226 227 229 226 228 232 236 237 239 241 246 248 255
222 226 224 227 225 230 231 240 253 267 263 246 270 281 268 252 254 247 244 246 255 286 311 297 213 214 221 218 219 219 223 226 230 232 234 235 237 238 241 239 241 244 246 253
222 220 222 225 231 227 229 235 249 251 265 264 273 280 276 280 266 254 244 246 253 263 289 285 223 225 220 221 222 222 227 229 234 238 238 240 237 237 238 238 239 243 247 252
227 226 226 223 226 219 238 234 244 253 242 255 262 269 275 266 262 246 236 241 238 255 285 282 227 233 224 225 226 229 233 234 239 239 238 237 235 233 237 236 241 244 250 254
224 217 219 221 222 218 232 242 239 238 244 252 265 273 273 268 260 240 234 234 233 251 261 259 237 239 234 226 230 235 242 237 240 242 239 235 234 231 234 238 245 249 251 253
222 221 214 216 219 220 233 238 239 248 253 257 250 255 273 244 252 241 243 237 235 244 249 262 258 258 246 234 236 239 241 239 240 240 237 233 230 228 233 239 246 252 253 259
224 227 223 219 226 228 226 225 240 249 255 242 241 263 252 261 259 249 239 234 234 241 248 257 257 260 256 242 240 242 243 245 244 237 234 231 229 231 235 241 247 249 257 265
214 231 218 219 221 223 226 220 221 230 239 252 256 247 250 273 283 256 253 233 227 237 249 259 264 263 262 248 245 244 245 250 249 229 231 230 231 234 240 244 244 253 262 270
214 230 229 221 221 217 227 227 230 228 251 252 250 261 267 274 282 271 237 227 231 241 256 264 271 272 265 253 247 245 245 247 237 242 233 231 232 237 242 246 247 256 265 273
223 226 227 227 223 229 225 226 231 243 232 244 258 258 252 258 259 252 240 241 249 256 264 269 277 280 269 258 251 250 247 243 245 243 236 234 236 239 245 249 249 257 264 270
223 227 231 226 227 224 228 231 237 236 239 240 251 257 247 242 244 244 249 256 258 258 264 269 276 284 273 260 254 252 249 247 247 247 244 241 241 241 246 249 252 256 261 269
222 229 233 233 233 232 229 231 231 235 242 248 247 252 249 247 245 250 262 270 266 259 261 267 273 279 272 267 263 259 254 250 249 251 249 245 245 245 247 251 253 256 260 267
219 229 233 242 237 235 234 236 239 239 243 239 242 257 247 251 256 262 267 276 269 261 262 267 271 273 274 269 271 266 259 255 253 251 251 249 247 247 250 251 254 257 261 265
218 226 228 234 234 230 234 236 237 234 238 239 245 252 259 256 256 264 270 271 272 264 263 266 268 268 272 268 270 272 266 258 255 252 253 253 249 249 251 252 253 257 259 264
221 227 231 238 232 233 236 234 233 235 238 238 247 247 256 261 266 271 275 276 271 267 264 264 264 265 271 270 270 271 269 262 255 253 254 254 253 252 252 252 251 254 258 262
228 232 232 236 232 230 232 233 232 237 241 249 249 254 255 258 264 275 276 279 280 275 267 267 267 263 269 270 268 271 271 264 258 256 256 255 254 253 251 250 249 253 257 260
227 226 230 232 230 231 241 233 235 240 245 246 247 253 252 254 262 271 277 280 282 281 279 270 267 265 266 267 266 272 271 266 262 258 258 255 254 252 249 248 249 254 257 258
224 225 229 230 231 235 242 238 237 237 246 248 251 253 255 259 258 266 275 278 281 281 281 279 275 270 265 265 265 269 270 266 264 261 259 255 253 251 247 247 251 253 255 257
227 225 229 228 232 243 243 237 234 239 246 249 249 254 257 261 261 263 280 281 280 281 282 280 278 274 266 260 261 266 268 265 265 262 259 255 251 250 248 248 250 252 254 256
227 227 229 233 233 237 241 242 244 245 250 246 250 255 260 261 260 266 276 281 285 285 286 285 282 274 267 258 257 262 266 265 265 262 259 254 251 250 248 248 249 252 254 256
229 232 230 236 240 248 243 244 245 243 253 247 249 252 256 258 259 265 275 280 284 285 286 286 283 276 265 253 251 257 263 267 267 264 258 253 251 251 250 248 249 250 252 255
228 229 234 238 242 246 240 243 242 248 249 247 250 252 255 258 262 268 275 280 283 286 285 284 280 274 266 256 254 258 263 266 270 264 259 254 252 251 250 249 249 250 251 254
230 232 233 236 239 245 246 245 246 248 247 250 252 254 256 259 265 270 274 279 281 284 284 280 277 270 264 260 260 263 265 266 263 266 260 257 252 251 250 249 249 251 252 255
232 235 237 237 241 241 244 247 248 247 248 250 252 256 258 262 267 270 273 276 278 281 281 282 276 270 268 265 265 265 263 262 263 262 260 258 255 254 253 251 250 251 252 254
234 238 233 237 233 238 247 247 246 247 248 250 254 258 260 264 268 271 274 275 277 279 279 278 276 273 270 269 267 264 263 261 262 262 262 260 258 256 255 252 251 252 253 252
237 233 236 238 237 240 244 248 249 251 253 257 259 263 266 269 272 273 274 274 274 279 280 277 276 276 275 272 268 265 262 261 261 261 261 260 259 257 254 253 254 255 254 251